| time (UTC) | temp C | wind direction | speed KPH | gust KPH | rain 1hr cm | rain 24hr cm | rain mn cm | humidity % | barometer mb |
| 20260507230022 | 13 | 53 | 0.0 | 3.2 | 0.00 | 0.13 | 0.00 | 94 | 1015.8 |
| 20260507224521 | 13 | 297 | 0.0 | 1.6 | 0.00 | 0.13 | 0.00 | 94 | 1015.9 |
| 20260507223020 | 13 | 297 | 0.0 | 0.0 | 0.00 | 0.13 | 0.00 | 94 | 1015.9 |
| 20260507221528 | 13 | 297 | 0.0 | 1.6 | 0.00 | 0.13 | 0.00 | 93 | 1015.9 |
| 20260507220017 | 13 | 20 | 1.6 | 11.3 | 0.00 | 0.13 | 0.13 | 93 | 1015.8 |
| 20260507214515 | 13 | 12 | 0.0 | 6.4 | 0.00 | 0.13 | 0.13 | 94 | 1015.7 |
| 20260507213022 | 13 | 306 | 0.0 | 0.0 | 0.00 | 0.13 | 0.13 | 93 | 1015.5 |
| 20260507211511 | 13 | 307 | 0.0 | 1.6 | 0.00 | 0.13 | 0.13 | 92 | 1015.6 |
| 20260507210013 | 13 | 307 | 0.0 | 1.6 | 0.00 | 0.13 | 0.13 | 93 | 1015.6 |
| 20260507204509 | 14 | 354 | 0.0 | 0.0 | 0.00 | 0.13 | 0.13 | 92 | 1015.6 |
| 20260507203008 | 15 | 354 | 0.0 | 3.2 | 0.00 | 0.13 | 0.13 | 91 | 1015.6 |
| 20260507201506 | 15 | 344 | 0.0 | 1.6 | 0.00 | 0.13 | 0.13 | 91 | 1015.5 |
| 20260507200004 | 15 | 343 | 1.6 | 3.2 | 0.00 | 0.13 | 0.13 | 90 | 1015.3 |
| 20260507194516 | 15 | 311 | 0.0 | 4.8 | 0.00 | 0.13 | 0.13 | 91 | 1015.3 |
| 20260507193002 | 15 | 296 | 0.0 | 1.6 | 0.00 | 0.13 | 0.13 | 92 | 1015.2 |
| 20260507191604 | 16 | 296 | 0.0 | 0.0 | 0.00 | 0.13 | 0.13 | 90 | 1015.2 |
| 20260507190113 | 16 | 296 | 0.0 | 4.8 | 0.00 | 0.13 | 0.13 | 90 | 1015.1 |
| 20260507184559 | 16 | 286 | 0.0 | 1.6 | 0.00 | 0.13 | 0.13 | 89 | 1015.2 |
| 20260507183116 | 16 | 285 | 0.0 | 3.2 | 0.00 | 0.13 | 0.13 | 87 | 1015.2 |
| 20260507181601 | 17 | 144 | 0.0 | 1.6 | 0.00 | 0.13 | 0.13 | 84 | 1015.1 |
| 20260507180104 | 17 | 247 | 0.0 | 3.2 | 0.00 | 0.13 | 0.13 | 83 | 1015.1 |
| 20260507174604 | 17 | 254 | 0.0 | 4.8 | 0.00 | 0.13 | 0.13 | 83 | 1015.2 |
| 20260507173110 | 17 | 118 | 0.0 | 4.8 | 0.00 | 0.13 | 0.13 | 82 | 1015.1 |
| 20260507171656 | 17 | 137 | 1.6 | 11.3 | 0.00 | 0.13 | 0.13 | 82 | 1015.3 |
| 20260507170057 | 18 | 136 | 4.8 | 11.3 | 0.00 | 0.13 | 0.13 | 80 | 1015.1 |
| 20260507164628 | 18 | 127 | 3.2 | 9.7 | 0.00 | 0.13 | 0.13 | 80 | 1015.0 |
| 20260507163056 | 18 | 141 | 3.2 | 9.7 | 0.00 | 0.13 | 0.13 | 79 | 1015.0 |
| 20260507161559 | 18 | 149 | 3.2 | 11.3 | 0.00 | 0.13 | 0.13 | 79 | 1015.1 |
| 20260507160052 | 19 | 127 | 3.2 | 9.7 | 0.00 | 0.13 | 0.13 | 75 | 1015.0 |
| 20260507154556 | 18 | 137 | 3.2 | 14.5 | 0.00 | 0.13 | 0.13 | 79 | 1015.0 |
| 20260507153049 | 18 | 143 | 6.4 | 14.5 | 0.00 | 0.13 | 0.13 | 77 | 1015.2 |
| 20260507151549 | 18 | 353 | 3.2 | 16.1 | 0.00 | 0.13 | 0.13 | 79 | 1015.1 |
| 20260507150050 | 18 | 127 | 4.8 | 14.5 | 0.00 | 0.13 | 0.13 | 78 | 1015.2 |
| 20260507144547 | 19 | 120 | 4.8 | 14.5 | 0.00 | 0.13 | 0.13 | 77 | 1015.1 |
| 20260507143147 | 18 | 117 | 4.8 | 14.5 | 0.00 | 0.13 | 0.13 | 79 | 1015.1 |
| 20260507141545 | 18 | 129 | 1.6 | 20.9 | 0.00 | 0.13 | 0.13 | 80 | 1015.3 |
| 20260507140046 | 18 | 99 | 8.0 | 16.1 | 0.00 | 0.13 | 0.13 | 79 | 1015.4 |
| 20260507134545 | 18 | 73 | 11.3 | 19.3 | 0.00 | 0.13 | 0.13 | 76 | 1015.4 |
| 20260507133049 | 18 | 120 | 6.4 | 17.7 | 0.00 | 0.13 | 0.13 | 77 | 1015.3 |
| 20260507131542 | 18 | 116 | 6.4 | 17.7 | 0.00 | 0.13 | 0.13 | 81 | 1015.3 |
| 20260507130043 | 18 | 79 | 8.0 | 17.7 | 0.00 | 0.13 | 0.13 | 80 | 1015.3 |
| 20260507124546 | 18 | 71 | 0.0 | 11.3 | 0.00 | 0.13 | 0.13 | 81 | 1015.3 |
| 20260507123042 | 18 | 26 | 3.2 | 14.5 | 0.00 | 0.13 | 0.13 | 80 | 1015.2 |
| 20260507121539 | 18 | 93 | 3.2 | 9.7 | 0.00 | 0.13 | 0.13 | 78 | 1015.1 |
| 20260507120038 | 18 | 63 | 3.2 | 16.1 | 0.00 | 0.13 | 0.13 | 77 | 1015.2 |
| 20260507114555 | 18 | 275 | 8.0 | 17.7 | 0.00 | 0.13 | 0.13 | 80 | 1015.3 |
| 20260507113059 | 18 | 72 | 6.4 | 17.7 | 0.00 | 0.13 | 0.13 | 78 | 1015.5 |
| 20260507111540 | 18 | 272 | 3.2 | 12.9 | 0.00 | 0.13 | 0.13 | 79 | 1015.6 |
| 20260507110033 | 17 | 86 | 3.2 | 8.0 | 0.00 | 0.13 | 0.13 | 81 | 1015.5 |
| 20260507104540 | 17 | 177 | 3.2 | 9.7 | 0.00 | 0.13 | 0.13 | 81 | 1015.5 |
| 20260507103032 | 17 | 94 | 4.8 | 12.9 | 0.00 | 0.13 | 0.13 | 81 | 1015.5 |
| 20260507101531 | 16 | 84 | 3.2 | 11.3 | 0.00 | 0.13 | 0.13 | 83 | 1015.6 |
| 20260507100029 | 17 | 120 | 12.9 | 22.5 | 0.00 | 0.13 | 0.13 | 83 | 1015.5 |
| 20260507094533 | 18 | 68 | 12.9 | 27.4 | 0.00 | 0.13 | 0.13 | 83 | 1015.4 |
| 20260507093033 | 17 | 107 | 14.5 | 24.1 | 0.00 | 0.13 | 0.13 | 81 | 1015.4 |
| 20260507091525 | 17 | 110 | 8.0 | 19.3 | 0.00 | 0.13 | 0.13 | 82 | 1015.4 |
| 20260507090023 | 17 | 108 | 11.3 | 22.5 | 0.03 | 0.13 | 0.13 | 81 | 1015.4 |
| 20260507084525 | 17 | 115 | 1.6 | 16.1 | 0.03 | 0.13 | 0.13 | 84 | 1015.2 |
| 20260507083019 | 16 | 120 | 8.0 | 22.5 | 0.03 | 0.13 | 0.13 | 86 | 1015.0 |
| 20260507081530 | 16 | 124 | 8.0 | 24.1 | 0.03 | 0.13 | 0.13 | 87 | 1014.9 |
| 20260507080015 | 16 | 146 | 11.3 | 24.1 | 0.05 | 0.10 | 0.10 | 87 | 1014.7 |
| 20260507074513 | 16 | 181 | 9.7 | 20.9 | 0.10 | 0.10 | 0.10 | 88 | 1014.6 |
| 20260507073013 | 16 | 124 | 8.0 | 17.7 | 0.10 | 0.10 | 0.10 | 87 | 1014.3 |
| 20260507071508 | 15 | 165 | 9.7 | 20.9 | 0.10 | 0.10 | 0.10 | 88 | 1014.2 |
| 20260507070012 | 16 | 116 | 6.4 | 17.7 | 0.05 | 0.53 | 0.05 | 85 | 1014.1 |
| 20260507064504 | 17 | 87 | 8.0 | 17.7 | 0.00 | 0.48 | 0.00 | 79 | 1014.0 |
| 20260507063001 | 16 | 49 | 6.4 | 12.9 | 0.00 | 0.48 | 0.00 | 83 | 1014.0 |
| 20260507061701 | 16 | 110 | 3.2 | 9.7 | 0.00 | 0.48 | 0.00 | 84 | 1013.9 |
| 20260507060104 | 16 | 51 | 4.8 | 17.7 | 0.00 | 0.48 | 0.00 | 83 | 1013.9 |
| 20260507054558 | 16 | 27 | 6.4 | 14.5 | 0.00 | 0.48 | 0.00 | 84 | 1013.8 |
| 20260507053057 | 16 | 82 | 1.6 | 8.0 | 0.00 | 0.48 | 0.00 | 84 | 1013.7 |
| 20260507051555 | 16 | 32 | 3.2 | 14.5 | 0.00 | 0.48 | 0.00 | 84 | 1013.7 |
| 20260507050051 | 16 | 73 | 4.8 | 9.7 | 0.00 | 0.48 | 0.00 | 86 | 1013.4 |
| 20260507044604 | 15 | 34 | 3.2 | 11.3 | 0.00 | 0.48 | 0.00 | 87 | 1013.3 |
| 20260507043100 | 15 | 71 | 3.2 | 8.0 | 0.00 | 0.48 | 0.00 | 87 | 1013.2 |
| 20260507041543 | 15 | 83 | 0.0 | 8.0 | 0.00 | 0.48 | 0.00 | 87 | 1013.2 |
| 20260507040043 | 15 | 71 | 4.8 | 17.7 | 0.00 | 0.48 | 0.00 | 87 | 1013.1 |
| 20260507034542 | 15 | 60 | 1.6 | 8.0 | 0.00 | 0.48 | 0.00 | 87 | 1013.1 |
| 20260507033042 | 15 | 40 | 6.4 | 14.5 | 0.00 | 0.48 | 0.00 | 87 | 1013.1 |
| 20260507031545 | 15 | 113 | 1.6 | 9.7 | 0.00 | 0.48 | 0.00 | 88 | 1013.0 |
| 20260507030039 | 15 | 86 | 3.2 | 8.0 | 0.00 | 0.56 | 0.00 | 88 | 1013.1 |
| 20260507024542 | 15 | 69 | 3.2 | 9.7 | 0.00 | 0.56 | 0.00 | 87 | 1013.0 |
| 20260507023037 | 15 | 110 | 1.6 | 9.7 | 0.00 | 0.56 | 0.00 | 87 | 1013.0 |
| 20260507021538 | 15 | 56 | 1.6 | 4.8 | 0.00 | 0.56 | 0.00 | 88 | 1013.1 |
| 20260507020047 | 16 | 123 | 3.2 | 11.3 | 0.00 | 1.73 | 0.00 | 87 | 1013.0 |
| 20260507014535 | 16 | 130 | 0.0 | 6.4 | 0.00 | 1.73 | 0.00 | 87 | 1012.9 |
| 20260507013032 | 16 | 80 | 1.6 | 11.3 | 0.00 | 1.73 | 0.00 | 86 | 1012.8 |
| 20260507011541 | 16 | 107 | 3.2 | 11.3 | 0.00 | 1.73 | 0.00 | 86 | 1013.0 |
| 20260507010034 | 16 | 81 | 0.0 | 8.0 | 0.00 | 4.39 | 0.00 | 86 | 1013.1 |
| 20260507004531 | 16 | 186 | 3.2 | 11.3 | 0.00 | 4.39 | 0.00 | 86 | 1013.2 |
| 20260507003029 | 16 | 136 | 4.8 | 12.9 | 0.00 | 4.39 | 0.00 | 86 | 1013.2 |
| 20260507001600 | 16 | 91 | 6.4 | 14.5 | 0.00 | 4.39 | 0.00 | 86 | 1013.0 |
| 20260507000025 | 16 | 149 | 6.4 | 14.5 | 0.00 | 4.39 | 0.00 | 85 | 1013.0 |
| 20260506234524 | 16 | 129 | 4.8 | 16.1 | 0.00 | 4.39 | 0.00 | 84 | 1013.1 |
| 20260506233023 | 16 | 134 | 6.4 | 12.9 | 0.00 | 4.39 | 0.00 | 84 | 1013.2 |
| 20260506231521 | 16 | 174 | 3.2 | 14.5 | 0.00 | 4.39 | 0.00 | 83 | 1013.1 |